Location: Cussy
(47.0410°N, 4.6412°E)
Time: 18:42:59
(UTC+00:00)

deb Agena D - Visible Passes

Search period start: 22 June 2021 00:00
Search period end: 02 July 2021 00:00
Orbit: 977 x 1022 km, 100.1° (Epoch: 21 June)

Date Brightness Start Highest point End Pass type
(mag) Time Alt. Az. Time Alt. Az. Time Alt. Az.
22 Jun ? 01:33:55 10° N 01:39:15 29° WNW 01:44:11 11° WSW visible
22 Jun ? 22:39:18 10° NE 22:43:34 18° E 22:46:09 15° ESE visible
23 Jun ? 00:21:31 10° NNE 00:27:54 84° WNW 00:31:19 30° SSW visible
23 Jun ? 02:06:26 10° N 02:10:37 19° NW 02:14:48 10° W visible
23 Jun ? 23:10:13 10° NE 23:15:48 31° E 23:18:26 23° SE visible
24 Jun ? 00:53:29 10° N 00:59:37 52° WNW 01:03:36 22° SW visible
24 Jun ? 02:39:38 10° NNW 02:41:51 12° NW 02:44:03 10° WNW visible
24 Jun ? 23:41:39 10° NNE 23:47:51 52° E 23:50:44 31° SSE visible
25 Jun ? 01:25:39 10° N 01:31:11 33° WNW 01:35:53 14° WSW visible
25 Jun ? 22:31:37 10° NE 22:35:17 16° E 22:37:51 13° ESE visible
26 Jun ? 00:13:22 10° NNE 00:19:46 86° ESE 00:23:01 32° SSW visible
26 Jun ? 01:58:03 10° N 02:02:37 21° NW 02:07:10 10° W visible
26 Jun ? 23:02:15 10° NE 23:07:33 27° E 23:10:08 21° SE visible
27 Jun ? 00:45:17 10° N 00:51:31 60° WNW 00:55:18 25° SW visible
27 Jun ? 02:30:57 10° NNW 02:33:53 14° NW 02:36:49 10° WNW visible
27 Jun ? 23:33:35 10° NNE 23:39:40 45° E 23:42:25 29° SSE visible
28 Jun ? 01:17:23 10° N 01:23:08 37° WNW 01:27:34 16° WSW visible
28 Jun ? 22:24:07 10° ENE 22:26:58 13° E 22:29:32 11° ESE visible
29 Jun ? 00:05:14 10° NNE 00:11:37 75° ESE 00:14:41 33° S visible
29 Jun ? 01:49:43 10° N 01:54:35 24° NW 01:59:27 10° WSW visible
29 Jun ? 22:54:21 10° NE 22:59:17 23° E 23:01:48 19° SE visible
30 Jun ? 00:37:06 10° NNE 00:43:25 68° WNW 00:46:58 27° SW visible
30 Jun ? 02:22:24 10° NNW 02:25:54 16° NW 02:29:24 10° W visible
30 Jun ? 23:25:32 10° NNE 23:31:27 39° E 23:34:05 27° SE visible
01 Jul ? 01:09:08 10° N 01:15:04 42° WNW 01:19:14 19° SW visible
01 Jul ? 22:17:06 10° ENE 22:18:39 11° E 22:20:10 10° E visible
